Tracking 31027 objects as of 19-Jul-2025
HD Live streaming from Space Station
objects crossing your sky now

COSMOS 2251 DEB

Track COSMOS 2251 DEB now!
10-day predictions


NORAD ID: 35038
Int'l Code: 1993-036AHB
Perigee: 735.2 km
Apogee: 902.2 km
Inclination: 74.1 °
Period: 101.1 minutes
Semi major axis: 7189 km
RCS: 0.0088 m2 (small)
Launch date: June 16, 1993
Source: Commonwealth of Independent States (former USSR) (CIS)
Launch site: PLESETSK MISSILE AND SPACE COMPLEX (PKMTR)

Note: This is SATELLITE DEBRIS
Your satellite tracking list
FLOCK 3P 17
Track 1 satellite(s)




NASA's NSSDC Master Catalog

Two Line Element Set (TLE):
1 35038U 93036AHB 25197.74940326  .00002059  00000-0  84484-3 0  9996
2 35038  74.1068 309.9661 0116134 336.6960 174.7087 14.24099366834474
Source of the keplerian elements: AFSPC